Gulf Shores, AL

5:15 PM CDT on July 25, 2017 (GMT -0500)
Edwards

Weather History for KJKA - October, 2012

Change the Weather History Date:

Thursday, October 18, 2012

  Actual Average (KNPA) Record (KNPA)
Temperature  
Mean Temperature 69 °F -  
Max Temperature 78 °F 76 °F 86 °F (2016)
Min Temperature 60 °F 57 °F 46 °F (2001)
Cooling Degree Days 4    
Growing Degree Days 19 (Base 50)    
Moisture  
Dew Point 67 °F    
Average Humidity 82    
Maximum Humidity 100    
Minimum Humidity 64    
Precipitation  
Precipitation 0.03 in - - ()
Sea Level Pressure  
Sea Level Pressure 29.82 in    
Wind  
Wind Speed 6 mph (SW)    
Max Wind Speed 21 mph    
Max Gust Speed 28 mph    
Visibility 10 miles    
Events Rain , Thunderstorm    
Averages and records for this station are not official NWS values.
T = Trace of Precipitation, MM = Missing Value Source: NWS Daily Summary

Daily Weather History Graph

Daily Weather History Graph

Search for Another Location

Airport or City:

Trip Planner

Search our weather history database for the weather conditions in past years. The results will help you decide how hot, cold, wet, or windy it might be!

Date:

Astronomy

Oct. 18, 2012 Rise Set
Actual Time 6:55 AM CDT 6:15 PM CDT
Civil Twilight 6:30 AM CDT 6:40 PM CDT
Nautical Twilight 6:02 AM CDT 7:08 PM CDT
Astronomical Twilight 5:35 AM CDT 7:35 PM CDT
Moon 10:22 AM CDT (10/18) 9:04 PM CDT (10/18)
Length of Visible Light 12h 09m
Length of Day
11h 20m
Waxing Crescent, 14% of the Moon is Illuminated
Oct 18
Waxing Crescent
Oct 21
First Quarter
Oct 29
Full
Nov 6
Last Quarter
Nov 13
New

Hourly Weather History & Observations

Time (CDT) Temp. Dew Point Humidity Pressure Visibility Wind Dir Wind Speed Gust Speed Precip Events Conditions
12:15 AM 73.4 °F 64.4 °F 73% 29.81 in 10.0 mi South 6.9 mph - N/A   Clear
12:35 AM 73.4 °F 64.4 °F 73% 29.81 in 10.0 mi South 6.9 mph - N/A   Scattered Clouds
12:55 AM 73.4 °F 66.2 °F 78% 29.81 in 10.0 mi South 6.9 mph - N/A   Scattered Clouds
1:15 AM 73.4 °F 66.2 °F 78% 29.81 in 10.0 mi South 9.2 mph - N/A   Mostly Cloudy
1:35 AM 73.4 °F 66.2 °F 78% 29.81 in 10.0 mi South 10.4 mph - N/A   Mostly Cloudy
1:55 AM 73.4 °F 64.4 °F 73% 29.80 in 10.0 mi South 8.1 mph - N/A   Scattered Clouds
2:15 AM 73.4 °F 64.4 °F 73% 29.79 in 10.0 mi South 6.9 mph - N/A   Clear
2:35 AM 73.4 °F 66.2 °F 78% 29.79 in 10.0 mi SSW 9.2 mph - N/A   Clear
2:55 AM 75.2 °F 68.0 °F 78% 29.78 in 10.0 mi South 10.4 mph - N/A   Clear
3:15 AM 75.2 °F 68.0 °F 78% 29.79 in 10.0 mi South 8.1 mph - N/A   Scattered Clouds
3:35 AM 75.2 °F 68.0 °F 78% 29.78 in 10.0 mi South 8.1 mph - N/A   Clear
3:55 AM 75.2 °F 68.0 °F 78% 29.78 in 10.0 mi South 9.2 mph - N/A   Mostly Cloudy
4:15 AM 77.0 °F 68.0 °F 74% 29.77 in 10.0 mi South 10.4 mph 16.1 mph N/A   Mostly Cloudy
4:35 AM 77.0 °F 68.0 °F 74% 29.78 in 10.0 mi SSW 6.9 mph - N/A   Mostly Cloudy
4:55 AM 77.0 °F 69.8 °F 78% 29.78 in 10.0 mi SSW 8.1 mph 16.1 mph N/A   Mostly Cloudy
5:15 AM 77.0 °F 69.8 °F 78% 29.79 in 10.0 mi SSW 9.2 mph - N/A Rain Rain
5:35 AM 75.2 °F 71.6 °F 89% 29.78 in 10.0 mi SSW 5.8 mph - 0.01 in   Mostly Cloudy
5:55 AM 77.0 °F 69.8 °F 78% 29.79 in 10.0 mi SSW 9.2 mph - 0.01 in   Scattered Clouds
6:35 AM 77.0 °F 71.6 °F 83% 29.79 in 10.0 mi SSW 6.9 mph - N/A   Mostly Cloudy
6:55 AM 77.0 °F 71.6 °F 83% 29.79 in 10.0 mi North - - N/A   Scattered Clouds
7:15 AM 77.0 °F 71.6 °F 83% 29.79 in 10.0 mi North - - N/A   Clear
7:35 AM 77.0 °F 71.6 °F 83% 29.78 in 10.0 mi SSW 6.9 mph - N/A   Clear
7:55 AM 77.0 °F 71.6 °F 83% 29.79 in 10.0 mi SSW 9.2 mph 17.3 mph N/A   Clear
8:15 AM 77.0 °F 71.6 °F 83% 29.79 in 10.0 mi SSW 10.4 mph - N/A   Clear
8:35 AM 77.0 °F 71.6 °F 83% 29.80 in 10.0 mi SSW 5.8 mph - N/A   Scattered Clouds
8:55 AM 77.0 °F 71.6 °F 83% 29.79 in 10.0 mi SSW 10.4 mph - N/A   Scattered Clouds
9:15 AM 78.8 °F 71.6 °F 78% 29.79 in 10.0 mi SW 9.2 mph - N/A Rain Light Rain
9:35 AM 78.8 °F 71.6 °F 78% 29.81 in 10.0 mi West 20.7 mph 27.6 mph N/A   Mostly Cloudy
9:55 AM 71.6 °F 68.0 °F 88% 29.83 in 7.0 mi West 10.4 mph 19.6 mph N/A Thunderstorm Unknown
10:15 AM 73.4 °F 69.8 °F 88% 29.82 in 10.0 mi NW 6.9 mph - N/A Rain Light Rain
10:35 AM 73.4 °F 69.8 °F 88% 29.80 in 10.0 mi North 5.8 mph - N/A Rain Light Rain
10:55 AM 71.6 °F 66.2 °F 83% 29.83 in 10.0 mi North 12.7 mph 20.7 mph N/A Thunderstorm Scattered Clouds
11:15 AM 71.6 °F 68.0 °F 88% 29.84 in 10.0 mi NNE 11.5 mph - N/A   Clear
11:35 AM 71.6 °F 66.2 °F 83% 29.84 in 10.0 mi NE 6.9 mph - N/A   Scattered Clouds
11:55 AM 71.6 °F 66.2 °F 83% 29.84 in 10.0 mi NNE 5.8 mph - N/A   Mostly Cloudy
12:15 PM 71.6 °F 68.0 °F 88% 29.84 in 10.0 mi North 6.9 mph - N/A   Mostly Cloudy
12:35 PM 71.6 °F 68.0 °F 88% 29.83 in 10.0 mi NNE 6.9 mph - 0.02 in   Scattered Clouds
12:55 PM 71.6 °F 68.0 °F 88% 29.84 in 10.0 mi NW 3.5 mph - 0.02 in Rain Light Rain
1:15 PM 71.6 °F 68.0 °F 88% 29.84 in 10.0 mi Calm Calm - N/A   Mostly Cloudy
1:35 PM 71.6 °F 68.0 °F 88% 29.83 in 10.0 mi Calm Calm - N/A Rain Light Rain
1:55 PM 71.6 °F 68.0 °F 88% 29.83 in 10.0 mi Calm Calm - N/A   Overcast
2:15 PM 71.6 °F 68.0 °F 88% 29.82 in 10.0 mi Calm Calm - N/A   Overcast
2:35 PM 73.4 °F 68.0 °F 83% 29.82 in 10.0 mi Calm Calm - N/A   Mostly Cloudy
2:55 PM 73.4 °F 68.0 °F 83% 29.82 in 10.0 mi NNE 3.5 mph - N/A   Overcast
3:15 PM 73.4 °F 68.0 °F 83% 29.82 in 10.0 mi North 6.9 mph - N/A   Overcast
3:35 PM 75.2 °F 66.2 °F 73% 29.81 in 10.0 mi North 6.9 mph - N/A   Scattered Clouds
4:35 PM 77.0 °F 64.4 °F 65% 29.81 in - North 3.5 mph - N/A   Unknown
4:55 PM 77.0 °F 64.4 °F 65% 29.81 in 10.0 mi Calm Calm - N/A   Clear
5:15 PM 75.2 °F 64.4 °F 69% 29.82 in 10.0 mi Calm Calm - N/A   Clear
5:35 PM 75.2 °F 64.4 °F 69% 29.81 in 10.0 mi Calm Calm - N/A   Clear
5:55 PM 73.4 °F 64.4 °F 73% 29.82 in 10.0 mi Calm Calm - N/A   Scattered Clouds
6:15 PM 71.6 °F 64.4 °F 78% 29.82 in 10.0 mi Calm Calm - N/A   Scattered Clouds
6:35 PM 69.8 °F 64.4 °F 83% 29.83 in 10.0 mi Calm Calm - N/A   Clear
6:55 PM 68.0 °F 64.4 °F 88% 29.84 in 10.0 mi Calm Calm - N/A   Clear
7:15 PM 68.0 °F 66.2 °F 94% 29.84 in 10.0 mi Calm Calm - N/A   Clear
7:35 PM 68.0 °F 64.4 °F 88% 29.86 in 10.0 mi Calm Calm - N/A   Clear
7:55 PM 68.0 °F 64.4 °F 88% 29.87 in 10.0 mi Calm Calm - N/A   Clear
8:15 PM 64.4 °F 64.4 °F 100% 29.88 in 7.0 mi Calm Calm - N/A   Clear
8:35 PM 66.2 °F 64.4 °F 94% 29.88 in 7.0 mi Calm Calm - N/A   Clear
8:55 PM 64.4 °F 64.4 °F 100% 29.89 in 4.0 mi Calm Calm - N/A   Clear
9:15 PM 68.0 °F 64.4 °F 88% 29.89 in 10.0 mi Calm Calm - N/A   Clear
9:35 PM 68.0 °F 55.4 °F 64% 29.89 in 10.0 mi North 3.5 mph - N/A   Clear
9:55 PM 68.0 °F 55.4 °F 64% 29.89 in 10.0 mi Calm Calm - N/A   Clear
10:15 PM 62.6 °F 57.2 °F 82% 29.89 in 10.0 mi Calm Calm - N/A   Clear
10:35 PM 60.8 °F 59.0 °F 94% 29.89 in 10.0 mi Calm Calm - N/A   Clear
10:55 PM 60.8 °F 59.0 °F 94% 29.89 in 10.0 mi Calm Calm - N/A   Clear